Weather in Sattahip

Thailand     12°41′02″N   100°54′16″E
temp.,
°C
wind,
m/s
gust,
m/s
humid.,
%
clouds,
%
prec.,
mm/h
press.,
hPa
HPBL,
m
19 april, mon
mon1901:00+28ssw3672100 0.7 1009231
04:00+27sw487485 1.3 1008322
07:00+28sw4674100 1.3 1010439
10:00+31sw5559100 0.0 10111165
13:00+32sw5555100 0.0 10081352
16:00+31s555886 0.0 1006982
19:00+28ssw5870100 0.2 1007610
22:00+28sw6873100 0.9 1009582
20 april, tue
tue2001:00+28sw3477100 1.8 1008200
04:00+26sw3684100 4.7 1007133
07:00+27sw3481100 4.9 1009226
10:00+29wsw2168100 0.0 1010814
13:00+32wsw3256100 0.1 10081494
16:00+32s3259100 0.6 10061203
19:00+28sse5674100 0.8 1008390
22:00+28sse467468 0.0 1010261
21 april, wed
wed2101:00+28sse3475100 0.0 1008140
04:00+27ssw2478100 1.5 1007104
07:00+28ssw2478100 5.7 1009171
10:00+32ssw3259100 0.0 10111118
13:00+33ssw4255100 0.1 10081568
16:00+32s4360100 0.1 1006896
19:00+29sse576947 0.1 1007295
22:00+29s467314 0.0 1010260
22 april, thu
thu2201:00+28s357596 0.0 1008182
04:00+28s2276100 0.0 100760
07:00+29s237410 0.9 1009303
10:00+32sw33575 0.0 10101017
13:00+33wsw325451 0.0 10071397
16:00+33sw225428 0.1 10051087
19:00+29sse466764 0.1 1006206
22:00+29s36715 0.0 1008265
23 april, fri
fri2301:00+29ssw36745 0.0 1007263
04:00+27ssw227198 0.5 100663
07:00+28s126946 0.6 1008135
10:00+32wsw325543 0.0 1009962
13:00+33wnw4354100 0.0 10061243
16:00+34wsw12505 0.1 10041242
19:00+29sse466861 0.3 1005228
22:00+29s58706 0.0 1008465